GW6344 Weather Reports


Display with metric or nautical units.
time (UTC)temp
F
wind
direction
speed
MPH
gust
MPH
rain 1hr
in
rain 24hr
in
rain mn
in
humidity
%
barometer
mb
20260504081527 52 190 0.0 0.0 0.00 0.00 0.00 92 1018.0
20260504050020 53 165 0.0 0.0 0.00 0.00 0.00 89 1019.1
20260504044530 53 193 0.0 0.0 0.00 0.00 0.00 89 1019.1
20260504043011 54 193 0.0 0.0 0.00 0.00 0.00 88 1019.2
20260504041525 54 188 0.0 0.0 0.00 0.00 0.00 88 1019.1
20260504040025 54 188 0.0 0.0 0.00 0.00 0.00 87 1019.1
20260504034533 55 188 0.0 0.0 0.00 0.00 0.00 87 1019.1
20260504033036 55 188 0.0 0.0 0.00 0.00 0.00 86 1019.1
20260504031523 56 188 0.0 0.0 0.00 0.00 0.00 85 1019.1
20260504030019 56 188 0.0 0.0 0.00 0.00 0.00 85 1019.1
20260504024520 57 188 0.0 0.0 0.00 0.00 0.00 84 1019.1
20260504023012 57 186 0.0 0.0 0.00 0.00 0.00 82 1018.9
20260504021533 58 235 0.0 0.0 0.00 0.00 0.00 83 1018.7
20260504020028 59 235 0.0 0.0 0.00 0.00 0.00 81 1018.6
20260504014525 59 234 0.0 0.0 0.00 0.00 0.00 81 1018.5
20260504013033 60 238 0.0 0.0 0.00 0.00 0.00 78 1018.4
20260504011524 61 238 0.0 0.0 0.00 0.00 0.00 76 1018.3
20260504010022 62 240 0.0 0.0 0.00 0.00 0.00 74 1018.1
20260504004516 63 248 0.0 0.0 0.00 0.00 0.00 71 1018.1
20260504003011 65 248 0.0 0.0 0.00 0.00 0.00 68 1018.0
20260504001527 67 247 0.0 0.0 0.00 0.00 0.00 62 1017.9
20260504000027 69 265 0.0 0.0 0.00 0.00 0.00 60 1017.8
20260503234528 71 265 0.0 0.0 0.00 0.00 0.00 54 1018.0
20260503233026 73 212 0.0 1.0 0.00 0.00 0.00 49 1017.9
20260503231526 74 160 0.0 1.0 0.00 0.00 0.00 45 1018.0
20260503230021 75 70 0.0 1.0 0.00 0.00 0.00 38 1017.9
20260503224519 77 62 1.0 4.0 0.00 0.00 0.00 42 1018.0
20260503223027 78 5 1.0 2.0 0.00 0.00 0.00 36 1018.1
20260503221532 78 30 0.0 3.0 0.00 0.00 0.00 37 1018.1
20260503220012 79 16 0.0 1.0 0.00 0.00 0.00 35 1018.3
20260503214509 77 30 0.0 5.0 0.00 0.00 0.00 35 1018.6
20260503213018 77 125 0.0 4.0 0.00 0.00 0.00 36 1018.8
20260503211507 77 161 0.0 3.0 0.00 0.00 0.00 38 1019.1
20260503210022 76 276 0.0 4.0 0.00 0.00 0.00 39 1019.1
20260503204525 77 270 1.0 4.0 0.00 0.00 0.00 38 1019.3
20260503203020 78 168 1.0 4.0 0.00 0.00 0.00 36 1019.5
20260503201527 77 309 1.0 4.0 0.00 0.00 0.00 35 1019.8
20260503200016 77 210 1.0 6.0 0.00 0.00 0.00 36 1020.3
20260503194510 77 84 2.0 4.0 0.00 0.00 0.00 35 1020.4
20260503193008 77 350 1.0 5.0 0.00 0.00 0.00 37 1020.6
20260503191504 77 38 1.0 6.0 0.00 0.00 0.00 39 1020.7
20260503190026 76 146 1.0 3.0 0.00 0.00 0.00 38 1020.9
20260503184526 75 75 1.0 6.0 0.00 0.00 0.00 37 1021.1
20260503183027 76 352 1.0 3.0 0.00 0.00 0.00 37 1021.4
20260503181528 75 205 1.0 7.0 0.00 0.00 0.00 43 1021.5
20260503180016 74 1 0.0 0.0 0.00 0.00 0.00 36 1021.6
20260503174511 74 6 0.0 0.0 0.00 0.00 0.00 38 1021.6
20260503173035 75 234 0.0 0.0 0.00 0.00 0.00 37 1021.7
20260503171528 74 77 0.0 0.0 0.00 0.00 0.00 39 1022.2